Location: Pian di Sc�
(43.6333°N, 11.5500°E)
Time: 17:56:01
(UTC+00:00)

PAYLOAD A - Pass Details

Date: 07 August 2020
Orbit: 691 x 832 km, 98.3° (Epoch: 17 September)

Event Time Altitude Azimuth Distance (km) Brightness Sun altitude
Rises 03:13:22 0° 13° (NNE) 3,378 8.1 -9.8°
Reaches altitude 10° 03:15:45 10° 14° (NNE) 2,431 7.3 -9.4°
Maximum altitude 03:21:10 88° 103° (ESE) 814 4.2 -8.6°
Drops below altitude 10° 03:26:23 10° 194° (SSW) 2,341 6.1 -7.8°
Sets 03:28:38 0° 195° (SSW) 3,245 6.8 -7.4°
